Starlink 32782

operational
NORAD ID: 62821 Int'l Des: 2025-018 Owner: SPXS Country: US Constellation: starlink
LEOCIRCULAR

Starlink 32782について

説明を読み込み中...

リアルタイム位置

3D地球を読み込み中...

次回通過

高度履歴

Altitude vs Time

uPlot chart will show altitude changes over time

軌道要素

1 62821U 25018R 25258.14586249 .00028766 00000-0 97861-3 0 9999
2 62821 53.1607 44.8483 0001090 91.1625 268.9500 15.30232404 36304
Epoch: Sep 15, 2025 • Age: 10 hours

現在のステータス

高度 492.3 km
速度 7.62 km/s
衛星直下点 -48.31°S, 75°E
打ち上げ日 Jan 24, 2025
運用期間 0.6 years
タイプ internet

技術仕様

分類 Payload
質量 730.00 kg
乾燥質量 700.00 kg
総質量 730.00 kg
長さ 0.30 m
直径 4.10 m
スパン 29.00 m
形状 Box + pan
製造者 SPXS
バスタイプ Starlink V2M
フェーズステータス In Orbit
所有者/国 SPXS/US

大規模コンステレーション

Loading constellations...